Погода в Брауншвейге

Германия     52°16′07″N   10°31′30″E
темп.,
°C
ветер,
м/с
пор.,
м/с
влажн.,
%
обл.,
%
осадки,
мм/ч
давл.,
гПа
погр.,
м
18 июня, пт
пт1823:00+22юв47750 0.0 101396
02:00+20юв33730 0.0 101342
05:00+19ююв22750 0.0 101313
08:00+23ююз11710 0.0 1013101
11:00+28в11615 0.0 1013483
14:00+30св01545 0.0 10131049
17:00+31вюв22525 0.0 10111511
20:00+19зсз4108480 1.9 1013154
19 июня, сб
сб1923:00+19ююв338336 0.0 101338
02:00+18зюз2289100 0.1 101419
05:00+18ююз3489100 0.0 101367
08:00+22зюз38845 0.0 1014368
11:00+24зюз5768100 0.0 10151015
14:00+26з466280 0.0 10151351
17:00+25сз3464100 0.0 1014902
20:00+24ссв22785 0.0 101462
20 июня, вс
вс2023:00+19св22820 0.0 101413
02:00+17в37894 0.0 1014111
05:00+17в48949 0.0 1011145
08:00+21вюв613857 0.0 1009405
11:00+27ююв58636 0.0 1008885
14:00+29юз685625 0.0 10071591
17:00+28юз355813 0.0 1006966
20:00+26сз2375100 0.0 100552
21 июня, пн
пн2123:00+21з81484100 0.6 1006604
02:00+17юз3993100 11.3 1007275
05:00+16ююз489384 0.0 1007197
08:00+18з469298 0.0 1008506
11:00+20зсз457988 0.1 1008840
14:00+21зсз5569100 0.3 10091210
17:00+21зсз5571100 0.0 10101022
20:00+18сз458244 0.0 1011443
22 июня, вт
вт2223:00+14сз34871 0.0 101276
02:00+12ссз239491 0.0 101339
05:00+10сз229629 0.0 101433
08:00+14с128342 0.0 1015375
11:00+18св216994 0.0 1015661
14:00+22св116184 0.0 1014961
17:00+23всв346266 0.1 1014974
20:00+21ссв3477100 0.1 1014118